Regional Weather Roundup
Issued by NWS Upton, NY

Current Version | Previous Version | Text Only | Print | Product List | Glossary On
Versions: 1 2 3 4 5 6 7 8 9 10 11 12 13 14 15 16 17 18 19 20 21 22 23 24 25 26 27 28 29 30 31 32 33 34 35 36 37 38 39 40 41 42 43 44 45 46 47 48 49 50
920
ASUS41 KOKX 211708
RWROKX

REGIONAL WEATHER ROUNDUP
NATIONAL WEATHER SERVICE NEW YORK NY
100 PM EDT SAT OCT 21 2017

NOTE: "FAIR" INDICATES FEW OR NO CLOUDS BELOW 12,000 FEET WITH NO
SIGNIFICANT WEATHER AND/OR OBSTRUCTIONS TO VISIBILITY.

NYZ071-072-176-178-NJZ106-104-211800-
NEW YORK CITY METRO AREA

CITY           SKY/WX    TMP DP  RH WIND       PRES   REMARKS
Central Park   SUNNY     76  37  24 CALM      30.34F
Bronx Bot Gard   N/A     75  36  23 N3        30.34R
LaGuardia APRT MOSUNNY   77  47  34 N5        30.31F
Kennedy INTL   PTSUNNY   74  46  36 S8        30.33F
Breezy Point     N/A     66 N/A N/A SW6         N/A
Newark/Liberty PTSUNNY   78  35  21 VRB3      30.32F
Teterboro      SUNNY     77  39  25 VRB3      30.31F
$$

NYZ177-179-078>081-211800-
LONG ISLAND NEW YORK

CITY           SKY/WX    TMP DP  RH WIND       PRES   REMARKS
Jones Beach      N/A     66 N/A N/A W6          N/A
Matinecock PT    N/A     70 N/A N/A SW8         N/A
Farmingdale    SUNNY     74  47  38 SW9       30.32F
MacArthur/ISP  MOSUNNY   72  51  47 S8        30.31F
Shirley        SUNNY     74  52  46 S7        30.32F
Mt Sinai Harb    N/A    N/A N/A N/A N2          N/A
Westhampton    SUNNY     70  43  37 S7        30.34S
East Hampton   FAIR      69  45  42 SE6       30.31F
Montauk          N/A     70  40  33 SW6       30.33F
$$

NYZ052-065-067-211800-
HUDSON VALLEY

CITY           SKY/WX    TMP DP  RH WIND       PRES   REMARKS
White Plains   SUNNY     76  37  24 W5        30.31F
Larchmont Harb   N/A     68 N/A N/A S8          N/A
Croton On Huds   N/A     72 N/A N/A SE1         N/A
Newburgh       SUNNY     73  45  35 W7        30.33F
Montgomery     SUNNY     74  49  41 S7        30.31F
Poughkeepsie   SUNNY     71  42  35 W3        30.30F
Albany         MOSUNNY   69  41  36 CALM      30.30F
$$

NJZ001-105-106-008-010-013-015-019>022-104-211800-
NEW JERSEY

CITY           SKY/WX    TMP DP  RH WIND       PRES   REMARKS
Newark/Liberty PTSUNNY   78  35  21 VRB3      30.32F
Teterboro      SUNNY     77  39  25 VRB3      30.31F
Caldwell       SUNNY     74  43  32 W5        30.33F
Somerville     SUNNY     77  45  32 CALM      30.32F
Linden         FAIR      75  38  26 CALM      30.33F
Perth Amboy      N/A     72 N/A N/A NW1         N/A
Sussex         SUNNY     73  45  36 S6        30.33F
Andover          N/A     72  39  30 SW6       30.34F
Trenton        SUNNY     75  39  27 CALM      30.33F
Millville      SUNNY     76  48  37 VRB3      30.34F
Atlantic City  SUNNY     73  45  36 S6        30.34F
Wrightstown    SUNNY     74  39  27 CALM      30.31F
Toms River       N/A     75  40  28 CALM      30.34F
Belmar         SUNNY     76  39  26 CALM      30.34F
$$

PAZ047>061-062-071-211800-
EASTERN PENNSYLVANIA

CITY           SKY/WX    TMP DP  RH WIND       PRES   REMARKS
Philadelphia   PTSUNNY   73  40  30 CALM      30.34F
Allentown      SUNNY     73  43  33 SW3       30.35F
Scranton       CLOUDY    67  42  40 W5        30.35F
$$

CTZ002-004>006-009-010-012-RIZ004-006-007-MAZ004-011-015-211800-
SOUTHERN NEW ENGLAND
 IN CT

CITY           SKY/WX    TMP DP  RH WIND       PRES   REMARKS
Bradley INTL   MOSUNNY   75  43  31 S6        30.29F
Hartford       SUNNY     74  45  35 CALM      30.29F
Danbury        SUNNY     77  37  23 SW5       30.32F
Wtrbury/Oxford SUNNY     73  38  27 VRB3      30.33F
Norwalk Harbor NOT AVBL
Bridgeport     SUNNY     68  48  48 SW8       30.31F
Meriden        SUNNY     74  43  32 VRB5      30.30F
New Haven      SUNNY     70  48  45 S6        30.31F
Chester        FAIR      75  36  23 CALM      30.31F
Groton         SUNNY     68  47  46 SW8       30.30F
Wilimantic     SUNNY     76  34  21 W3        30.29F

 IN RI

CITY           SKY/WX    TMP DP  RH WIND       PRES   REMARKS
Providence     MOSUNNY   71  48  43 SE10      30.29F
Block Island   SUNNY     68  42  38 SW12      30.32F
Westerly       SUNNY     69  47  45 SW7       30.32S
 IN MA

CITY           SKY/WX    TMP DP  RH WIND       PRES   REMARKS
Boston         MOSUNNY   72  43  35 S8        30.26F
Worcester      SUNNY     70  34  26 W10       30.30F
Westfield      SUNNY     73  42  32 S6        30.29F
Provincetown   SUNNY     68  47  46 S10       30.29F
Nantucket      SUNNY     64  52  64 SW9       30.31F
$$

ANZ330-335-338-340-345-350-353-355-211800-
COASTAL MARINE OBSERVATIONS


STATION/POSITION TIME  SKY/WX   TEMP    WIND        PRES    VSBY  WAVE
                                AIR SEA DIR/SP/G                  HT/PER
                 (UTC)          (F)     (DEG/KT/KT) (MB)    (MI)  (FT/S)
NY HARB ENTRANCE 1550            63 65  280/  4/  4 1026.9          2/ 8
20 S FIRE ISLAND 1550            66 65     CALM     1027.6          2/ 9
GREAT SOUTH BAY  1630            63 62  180/  4/  6   N/A
15 E BARNEGAT LI NOT AVBL
HUDSON CANYON    1550            65 65   70/  4/  6 1026.9          2/ 8
KINGS POINT      1648            74 65     CALM     1027.4
EXECUTION ROCKS  1630            71     180/  6/  6   N/A
WESTERN LI SOUND 1549            67     220/  6/  8   N/A           0
CENTRAL LI SOUND 1630            66     240/  4/  6   N/A           1
EASTERN LI SOUND NOT AVBL
ROBBINS REEF     1648            71     140/  2/  2 1027.5
$$


>>>>>>>>>>>>>>>>>>>>>>>>>>>> KEY <<<<<<<<<<<<<<<<<<<<<<<<<<<
>                                                          <
>     SKY/WX - Sky Condition/Present Weather               <
>     TMP    - Temperature in Fahrenheit                   <
>     DP     - Dew Point in Fahrenheit                     <
>     RH     - Relative Humidity in Percent                <
>     WIND   - Direction (from) and Speed in MPH           <
>     PRES   - Mean Sea Level Pressure (inches of Hg)      <
>     WCI    - Wind Chill Index                            <
>     VSB    - VISIBILITY IN MILES                         <
>     HX     - HEAT INDEX                                  <
>     TC     - TEMPERATURE IN CELSIUS                      <
>     VRB    - VARIABLE WIND DIRECTION                     <
>                                                          <
>>>>>>>>>>>>>>>>>>>>>>>>>>>> KEY <<<<<<<<<<<<<<<<<<<<<<<<<<<




USA.gov is the U.S. government's official web portal to all federal, state and local government web resources and services.